Hoquiam, WA

11:10 AM PDT on September 26, 2016 (GMT -0700)
Bowerman

Weather History for KHQM - December, 2012

Change the Weather History Date:

Sunday, December 9, 2012

  Actual Average Record
Temperature  
Mean Temperature 44 °F 42 °F  
Max Temperature 48 °F 47 °F 59 °F (2014)
Min Temperature 39 °F 37 °F 15 °F (2009)
Degree Days  
Heating Degree Days 22 23  
Month to date heating degree days 205  
Cooling Degree Days 0 0  
Month to date cooling degree days 0  
Year to date cooling degree days 23  
Moisture  
Dew Point 43 °F    
Average Humidity 97    
Maximum Humidity 100    
Minimum Humidity 87    
Precipitation  
Precipitation 0.27 in 0.31 in 3.77 in (1956)
Month to date precipitation 3.01  
Year to date precipitation 60.60  
Sea Level Pressure  
Sea Level Pressure 30.30 in    
Wind  
Wind Speed 7 mph (ENE)    
Max Wind Speed 12 mph    
Max Gust Speed -    
Visibility 3 miles    
Events Rain    
T = Trace of Precipitation, MM = Missing Value Source: NWS Daily Summary

Daily Weather History Graph

Daily Weather History Graph

Search for Another Location

Airport or City:

Trip Planner

Search our weather history database for the weather conditions in past years. The results will help you decide how hot, cold, wet, or windy it might be!

Date:

Astronomy

Dec. 09, 2012 Rise Set
Actual Time 7:50 AM PST 4:26 PM PST
Civil Twilight 7:14 AM PST 5:01 PM PST
Nautical Twilight 6:36 AM PST 5:40 PM PST
Astronomical Twilight 5:59 AM PST 6:17 PM PST
Moon 3:17 AM PST (12/9) 1:47 PM PST (12/9)
Length of Visible Light 9h 47m
Length of Day
8h 36m
Waning Crescent, 17% of the Moon is Illuminated
Dec 9
Waning Crescent
Dec 13
New
Dec 19
First Quarter
Dec 28
Full
Jan 4
Last Quarter

Hourly Weather History & Observations

Time (PST) Temp. Windchill Dew Point Humidity Pressure Visibility Wind Dir Wind Speed Gust Speed Precip Events Conditions
12:53 AM 39.9 °F 34.5 °F 37.9 °F 93% 30.35 in 10.0 mi NE 8.1 mph - N/A   Overcast
1:53 AM 39.9 °F 34.5 °F 37.9 °F 93% 30.35 in 9.0 mi NE 8.1 mph - N/A   Overcast
2:46 AM 39.2 °F 34.2 °F 37.4 °F 93% 30.34 in 7.0 mi ENE 6.9 mph - N/A   Overcast
2:53 AM 39.9 °F 35.1 °F 37.9 °F 93% 30.35 in 6.0 mi ENE 6.9 mph - N/A   Overcast
3:53 AM 39.9 °F 34.5 °F 37.9 °F 93% 30.35 in 10.0 mi ENE 8.1 mph - N/A   Overcast
4:53 AM 39.9 °F 33.9 °F 37.9 °F 93% 30.35 in 10.0 mi NE 9.2 mph - N/A   Overcast
5:53 AM 39.9 °F 34.5 °F 37.9 °F 93% 30.35 in 7.0 mi NE 8.1 mph - N/A   Overcast
6:18 AM 39.2 °F 33.6 °F 37.4 °F 93% 30.33 in 2.5 mi NE 8.1 mph - 0.00 in Rain Light Rain
6:26 AM 39.2 °F 33.0 °F 37.4 °F 93% 30.34 in 3.0 mi NE 9.2 mph - 0.01 in Rain Light Rain
6:41 AM 39.2 °F 33.6 °F 39.2 °F 100% 30.33 in 3.0 mi ENE 8.1 mph - 0.01 in   Overcast
6:53 AM 39.9 °F 34.5 °F 39.0 °F 97% 30.34 in 3.0 mi ENE 8.1 mph - 0.01 in   Overcast
7:53 AM 39.9 °F 33.4 °F 39.0 °F 97% 30.32 in 4.0 mi ENE 10.4 mph - 0.01 in   Overcast
8:53 AM 41.0 °F 35.8 °F 39.0 °F 93% 30.34 in 3.0 mi ENE 8.1 mph - N/A   Overcast
9:09 AM 41.0 °F 35.2 °F 39.2 °F 93% 30.33 in 2.0 mi ENE 9.2 mph - N/A   Overcast
9:28 AM 41.0 °F 34.3 °F 39.2 °F 93% 30.30 in 2.5 mi ENE 11.5 mph - N/A   Overcast
9:43 AM 41.0 °F 34.3 °F 39.2 °F 93% 30.32 in 4.0 mi NE 11.5 mph - 0.01 in   Overcast
9:53 AM 41.0 °F 34.7 °F 39.9 °F 96% 30.33 in 4.0 mi NE 10.4 mph - 0.01 in   Overcast
10:23 AM 42.8 °F 36.6 °F 39.2 °F 87% 30.31 in 5.0 mi ENE 11.5 mph - N/A   Overcast
10:48 AM 42.8 °F 37.5 °F 41.0 °F 93% 30.31 in 3.0 mi NE 9.2 mph - N/A   Overcast
10:53 AM 42.1 °F 36.6 °F 39.9 °F 92% 30.32 in 2.5 mi NE 9.2 mph - 0.00 in Rain Light Rain
11:04 AM 42.8 °F 38.6 °F 41.0 °F 93% 30.30 in 1.8 mi ENE 6.9 mph - 0.01 in Rain Light Rain
11:10 AM 42.8 °F 38.0 °F 41.0 °F 93% 30.30 in 3.0 mi ENE 8.1 mph - 0.01 in Rain Light Rain
11:18 AM 42.8 °F 38.0 °F 41.0 °F 93% 30.30 in 2.5 mi ENE 8.1 mph - 0.02 in Rain Light Rain
11:53 AM 42.1 °F 37.7 °F 41.0 °F 96% 30.31 in 1.5 mi NE 6.9 mph - 0.02 in Rain Light Rain
12:33 PM 42.8 °F 37.5 °F 42.8 °F 100% 30.30 in 2.0 mi NE 9.2 mph - 0.01 in Rain Light Rain
12:53 PM 43.0 °F 38.8 °F 42.1 °F 97% 30.30 in 1.5 mi ENE 6.9 mph - 0.02 in Rain Light Rain
1:04 PM 42.8 °F 38.6 °F 42.8 °F 100% 30.28 in 2.0 mi ENE 6.9 mph - 0.00 in Rain Light Rain
1:15 PM 42.8 °F 38.6 °F 42.8 °F 100% 30.27 in 1.5 mi ENE 6.9 mph - 0.00 in   Overcast
1:46 PM 44.6 °F 42.2 °F 44.6 °F 100% 30.26 in 2.0 mi NE 4.6 mph - 0.01 in   Overcast
1:53 PM 45.0 °F 43.5 °F 44.1 °F 97% 30.27 in 2.0 mi NE 3.5 mph - 0.01 in Rain Light Rain
2:00 PM 44.6 °F - 44.6 °F 100% 30.26 in 1.8 mi Calm Calm - 0.00 in Rain Light Rain
2:09 PM 44.6 °F - 44.6 °F 100% 30.26 in 2.0 mi Calm Calm - 0.00 in Rain Light Rain
2:19 PM 44.6 °F - 44.6 °F 100% 30.26 in 3.0 mi Calm Calm - 0.00 in   Overcast
2:28 PM 46.4 °F 44.3 °F 44.6 °F 93% 30.25 in 2.0 mi SSE 4.6 mph - 0.00 in   Overcast
2:38 PM 48.2 °F - 46.4 °F 93% 30.25 in 3.0 mi SSE 6.9 mph - 0.00 in   Overcast
2:53 PM 48.0 °F - 46.9 °F 96% 30.26 in 3.0 mi South 10.4 mph - 0.00 in   Overcast
3:01 PM 48.2 °F - 46.4 °F 93% 30.25 in 1.8 mi South 10.4 mph - 0.01 in Rain Light Rain
3:16 PM 48.2 °F - 48.2 °F 100% 30.25 in 2.0 mi South 9.2 mph - 0.01 in Rain Light Rain
3:25 PM 48.2 °F - 48.2 °F 100% 30.25 in 1.5 mi South 10.4 mph - 0.02 in Rain Light Rain
3:44 PM 48.2 °F - 48.2 °F 100% 30.25 in 2.5 mi South 6.9 mph - 0.03 in Rain Light Rain
3:53 PM 48.9 °F - 48.0 °F 97% 30.27 in 2.0 mi SSE 3.5 mph - 0.03 in Rain Light Rain
4:02 PM 48.2 °F - 48.2 °F 100% 30.26 in 1.0 mi SSE 3.5 mph - 0.01 in Rain Light Rain
4:35 PM 48.2 °F - 48.2 °F 100% 30.26 in 1.8 mi ENE 3.5 mph - 0.06 in Rain Light Rain
4:44 PM 48.2 °F - 48.2 °F 100% 30.25 in 2.0 mi ENE 4.6 mph - 0.07 in Rain Light Rain
4:53 PM 48.0 °F - 46.9 °F 96% 30.27 in 2.0 mi ENE 5.8 mph - 0.08 in Rain Light Rain
5:03 PM 46.4 °F 43.5 °F 46.4 °F 100% 30.25 in 1.8 mi NE 5.8 mph - 0.01 in Rain Light Rain
5:53 PM 46.9 °F - 46.9 °F 100% 30.27 in 1.8 mi Calm Calm - 0.04 in Rain Light Rain
6:25 PM 46.4 °F 44.3 °F 44.6 °F 93% 30.27 in 2.0 mi ENE 4.6 mph - 0.01 in   Overcast
6:37 PM 46.4 °F 44.3 °F 44.6 °F 93% 30.27 in 4.0 mi NE 4.6 mph - 0.01 in   Overcast
6:53 PM 45.0 °F 42.6 °F 44.1 °F 97% 30.27 in 7.0 mi ENE 4.6 mph - 0.01 in   Overcast
7:15 PM 44.6 °F - 44.6 °F 100% 30.27 in 2.0 mi Calm Calm - N/A   Overcast
7:23 PM 44.6 °F - 44.6 °F 100% 30.28 in 1.5 mi Calm Calm - N/A   Overcast
7:53 PM 45.0 °F - 45.0 °F 100% 30.30 in 1.0 mi Calm Calm - N/A   Overcast
8:21 PM 44.6 °F - 44.6 °F 100% 30.30 in 3.0 mi Calm Calm - 0.01 in   Overcast
8:29 PM 44.6 °F - 44.6 °F 100% 30.30 in 2.0 mi Calm Calm - 0.01 in   Overcast
8:53 PM 45.0 °F - 45.0 °F 100% 30.31 in 2.5 mi Calm Calm - 0.01 in   Overcast
9:02 PM 44.6 °F 42.2 °F 44.6 °F 100% 30.30 in 3.0 mi NE 4.6 mph - N/A   Overcast
9:33 PM 44.6 °F - 44.6 °F 100% 30.31 in 1.8 mi Calm Calm - N/A   Overcast
9:53 PM 45.0 °F - 45.0 °F 100% 30.33 in 1.8 mi Calm Calm - N/A   Overcast
10:47 PM 44.6 °F - 44.6 °F 100% 30.33 in 3.0 mi Calm Calm - 0.01 in   Overcast
10:48 PM 45.0 °F - 45.0 °F 100% 30.34 in 3.0 mi Calm Calm - 0.01 in   Overcast
11:13 PM 44.6 °F - 44.6 °F 100% 30.35 in 2.0 mi Calm Calm - N/A   Overcast
11:29 PM 44.6 °F - 44.6 °F 100% 30.36 in 5.0 mi Calm Calm - 0.01 in   Overcast
11:53 PM 45.0 °F - 45.0 °F 100% 30.36 in 5.0 mi Calm Calm - 0.01 in   Overcast